Location: Narrabri
(30.3170°S, 149.7830°E)
Time: 17:09:57
(UTC+11:00)

N. Korean satellite - Visible Passes

Search period start: 25 March 2019 00:00
Search period end: 04 April 2019 00:00
Orbit: 456 x 510 km, 97.2° (Epoch: 24 March)

Date Brightness Start Highest point End Pass type
(mag) Time Alt. Az. Time Alt. Az. Time Alt. Az.
25 Mar 9.9 19:59:37 10° SW 20:01:45 15° WSW 20:03:51 10° WNW visible
26 Mar 6.8 06:27:45 10° NNE 06:31:29 80° ESE 06:35:18 10° S visible
26 Mar 8.7 19:33:51 10° S 19:37:07 32° WSW 19:40:17 10° NW visible
27 Mar 8.6 06:03:22 10° NE 06:06:46 34° ESE 06:10:13 10° S visible
28 Mar 9.9 05:39:44 10° ENE 05:42:07 16° ESE 05:44:32 10° SSE visible
29 Mar 6.8 06:46:47 10° N 06:50:26 52° W 06:54:09 10° SSW visible
29 Mar 9.7 19:53:27 10° SSW 19:55:54 18° WSW 19:58:18 10° WNW visible
30 Mar 7.1 06:21:55 10° NNE 06:25:38 66° ESE 06:29:24 10° S visible
30 Mar 8.2 19:27:52 10° S 19:31:14 38° WSW 19:34:30 10° NW visible
31 Mar 8.9 05:57:39 10° NE 06:00:55 29° ESE 06:04:13 10° SSE visible
01 Apr 10.0 05:34:18 10° ENE 05:36:17 14° ESE 05:38:16 10° SE visible
02 Apr 6.7 06:40:49 10° N 06:44:31 63° W 06:48:17 10° SSW visible
02 Apr 9.4 19:47:17 10° SSW 19:49:59 21° WSW 19:52:38 10° WNW visible
03 Apr 7.5 06:16:05 10° NNE 06:19:44 54° ESE 06:23:26 10° S visible
03 Apr 7.7 19:21:52 10° S 19:25:17 46° WSW 19:28:37 10° NNW visible
